BLUEWALKER 3 DEB (54247 NORAD) Tracking and Keplerian Element Data

This shows tracking and keplerian element data for the satellite.

Feedback or suggestion? Click here.




ElementValue
Catalog54247
NameBLUEWALKER 3 DEB
Epoch Orbit97
Epoch Day321.71486304
Epoch Year2022
RAAN318.9493
Inclination53.2019
Eccentricity0.0013869
Argument of Perigee124.4527
Mean Anonmoly235.7781
Mean Motion15.18692969
Decay Rate4.819E-05
L11 54247U 22111AS 22321.71486304 .00004819 00000+0 24423-3 0 9991
L22 54247 53.2019 318.9493 0013869 124.4527 235.7781 15.18692969 978



Live tracking and technical data element details for BLUEWALKER 3 DEB (NORAD 54247). BLUEWALKER 3 DEB can be tracked NOW for your location showing map with azimuth and elevation plus other details from your city location.







IsCatalogInMostPopularTable: catalog: 54247, numindb: 3
Update: records affected: 1



GetName: 54247 BLUEWALKER 3 DEB

Hit Count: updated at: Sun, 04 Dec 2022 21:20:14 GMT